This demonstration page uses our WeatherBlox Daily Observations layout. Learn more.

Left ArrowRight Arrow

34.02893, -84.19858

Hourly Observations for March 27, 2016

Temp ( °F °C ) Dew Point ( °F °C ) Humidity (%) Winds ( mph kmh ) Pressure ( in mb ) Visibility ( mi km ) Precip ( " mm )
12:19 am 00:19 Cloudy with Mist and Fog 59 15 59 15 100 100 ENE 6 9 30.15 1021 2 3 0.00 0.00
12:32 am 00:32 Cloudy with Mist and Fog 59 15 59 15 100 100 E 3 6 30.15 1021 2 3 0.00 0.00
12:39 am 00:39 Cloudy with Mist and Fog 59 15 59 15 100 100 VRB 3 6 30.18 1022 2 3 0.00 0.00
12:53 am 00:53 Cloudy with Mist and Fog 59 15 59 15 100 100 Calm 30.16 1021 1 2 0.00 0.00
1:53 am 01:53 Cloudy with Mist and Fog 59 15 59 15 100 100 E 6 9 30.17 1022 1 2 0.00 0.00
2:24 am 02:24 Cloudy with Mist and Fog 59 15 59 15 100 100 VRB 5 7 30.18 1022 1 1 0.00 0.00
2:53 am 02:53 Cloudy with Mist and Fog 59 15 59 15 100 100 VRB 3 6 30.16 1021 1 1 0.00 0.00
3:50 am 03:50 Mostly Cloudy with Fog 59 15 59 15 100 100 VRB 3 6 30.15 1021 1 1 0.00 0.00
3:53 am 03:53 Mostly Cloudy with Fog 59 15 59 15 100 100 E 5 7 30.14 1021 1 1 0.00 0.00
4:53 am 04:53 Mostly Cloudy with Fog 59 15 59 15 100 100 VRB 5 7 30.12 1020 1 1 0.00 0.00
5:10 am 05:10 Mostly Cloudy with Mist and Fog 59 15 59 15 100 100 VRB 5 7 30.12 1020 1 1 0.00 0.00
5:49 am 05:49 Cloudy with Mist and Fog 59 15 59 15 100 100 ENE 3 6 30.12 1020 1 2 0.00 0.00
5:53 am 05:53 Cloudy with Mist and Fog 59 15 59 15 100 100 Calm 30.11 1020 1 2 0.00 0.00
6:27 am 06:27 Cloudy with Mist and Fog 60 15.6 60 15.6 100 100 E 3 6 30.12 1020 3 4 0.00 0.00
6:45 am 06:45 Cloudy with Mist and Fog 59 15 59 15 100 100 VRB 3 6 30.15 1021 2 3 0.00 0.00
6:53 am 06:53 Cloudy with Mist and Fog 59 15 59 15 100 100 ENE 3 6 30.13 1020 2 3 0.00 0.00
7:15 am 07:15 Cloudy with Mist and Fog 60 15.6 60 15.6 100 100 Calm 30.15 1021 2 3 0.00 0.00
7:25 am 07:25 Cloudy with Mist and Fog 59 15 59 15 100 100 Calm 30.15 1021 2 2 0.00 0.00
7:38 am 07:38 Cloudy with Mist and Fog 61 16 61 16 100 100 Calm 30.15 1021 2 3 0.00 0.00
7:51 am 07:51 Cloudy with Mist and Fog 59 15 59 15 100 100 ENE 3 6 30.15 1021 1 2 0.00 0.00
7:53 am 07:53 Cloudy with Mist and Fog 59 15 59 15 100 100 Calm 30.14 1021 1 2 0.00 0.00
8:14 am 08:14 Cloudy with Mist and Fog 61 16 61 16 100 100 VRB 3 6 30.15 1021 1 1 0.00 0.00
8:53 am 08:53 Cloudy with Fog 60 15.6 60 15.6 100 100 Calm 30.14 1021 1 1 0.00 0.00
9:53 am 09:53 Cloudy with Mist and Fog 60 15.6 60 15.6 100 100 Calm 30.14 1021 1 1 0.00 0.00
10:53 am 10:53 Cloudy with Mist and Fog 61 16.1 61 16.1 100 100 NE 3 6 30.12 1020 1 1 0.00 0.00
11:53 am 11:53 Cloudy with Mist and Fog 63 17.2 62 16.7 97 97 ENE 3 6 30.12 1020 3 5 0.00 0.00
12:14 pm 12:14 Cloudy with Mist and Fog 63 17.2 62 16.7 97 97 Calm 30.09 1019 4 6 0.00 0.00
12:53 pm 12:53 Cloudy with Mist and Fog 64 17.8 62 16.7 93 93 SE 5 7 30.10 1019 5 8 0.00 0.00
1:53 pm 13:53 Cloudy with Light Rain 65 18.3 63 17.2 93 93 Calm 30.09 1019 6 10 0.00 0.03
2:53 pm 14:53 Cloudy with Light Rain 65 18.3 62 16.7 90 90 SW 8 13 30.07 1018 10 16 0.00 0.03
3:36 pm 15:36 Cloudy with Light Rain 64 17.8 62 16.7 93 93 W 3 6 30.03 1017 10 16 0.00 0.03
3:53 pm 15:53 Cloudy with Light Rain 64 17.8 62 16.7 93 93 Calm 30.05 1018 10 16 0.00 0.03
4:53 pm 16:53 Cloudy with Light Rain 65 18.3 62 16.7 90 90 Calm 30.04 1017 10 16 0.01 0.25
5:53 pm 17:53 Cloudy with Light Rain 64 17.8 64 17.8 100 100 Calm 30.03 1017 4 6 0.02 0.51
6:31 pm 18:31 Mostly Cloudy with Mist and Fog 64 17.8 63 17.2 96 96 SE 5 7 29.97 1015 6 10 0.01 0.25
6:53 pm 18:53 Partly Cloudy with Mist and Fog 64 17.8 64 17.8 100 100 SE 3 6 29.98 1015 6 10 0.01 0.25
7:40 pm 19:40 Mostly Cloudy with Mist and Fog 63 17 63 17 100 100 WSW 7 11 29.97 1015 6 10 0.00 0.00
7:53 pm 19:53 Cloudy with Mist and Fog 64 17.8 63 17.2 96 96 SSW 7 11 29.97 1015 6 10 0.00 0.00
8:53 pm 20:53 Cloudy with Mist and Fog 63 17.2 63 17.2 100 100 SW 3 6 29.96 1014 6 10 0.00 0.00
9:53 pm 21:53 Cloudy with Mist and Fog 62 16.7 62 16.7 100 100 Calm 29.96 1015 6 10 0.00 0.00
10:00 pm 22:00 Cloudy with Mist and Fog 63 17 63 17 100 100 Calm 29.94 1014 5 8 0.00 0.00
10:12 pm 22:12 Cloudy with Mist and Fog 63 17 63 17 100 100 Calm 29.94 1014 5 8 0.00 0.00
10:53 pm 22:53 Cloudy with Mist and Fog 62 16.7 62 16.7 100 100 Calm 29.98 1015 4 6 0.00 0.00
11:00 pm 23:00 Cloudy with Mist and Fog 63 17 63 17 100 100 Calm 29.97 1015 3 5 0.00 0.00
11:20 pm 23:20 Cloudy with Mist and Fog 63 17 63 17 100 100 Calm 29.97 1015 3 4 0.00 0.00
11:32 pm 23:32 Cloudy with Mist and Fog 61 16 61 16 100 100 Calm 29.97 1015 2 3 0.00 0.00
11:39 pm 23:39 Cloudy with Mist and Fog 62 16.7 62 16.7 100 100 Calm 29.97 1015 3 4 0.00 0.00
11:53 pm 23:53 Cloudy with Mist and Fog 61 16.1 61 16.1 100 100 Calm 29.98 1015 1 2 0.00 0.00

Powered by AerisWeather